Lapse_Rate
1.1 1.1 0.7 0.5 0.4 0.4 0.3 -0.1 -0.4 -0.5 -0.9 -1.1 -1.2 -1.8 -1.5 -1.7 -2.3 -1.5 2.0 4.7 3.7 3.4 4.2 5.1 5.9 6.9 7.5 8.1 8.1 7.1 6.5 6.5 6.5 6.5 6.5 7.1 6.5 7.1 8.1 7.6 7.8 8.0 8.1 8.5 8.5
1.0 0.8 0.8 0.9 0.6 0.5 0.3 0.0 -0.1 -0.5 -0.7 -1.0 -1.6 -2.0 -1.8 -1.7 -1.5 -0.2 2.7 1.6 2.7 3.5 5.7 6.4 6.5 7.3 7.8 7.7 7.7 6.8 6.5 6.5 6.6 6.6 6.5 6.8 6.8 7.2 7.1 7.2 7.3 7.8 8.2 8.6 8.5
0.7 0.6 0.4 0.4 0.6 0.5 0.3 0.1 -0.5 -0.5 -0.8 -0.6 -1.4 -1.9 -2.0 -1.8 2.1 5.4 2.1 1.7 2.9 4.3 6.4 7.1 6.6 7.8 7.2 7.6 7.3 6.9 6.5 6.5 6.7 7.1 7.1 6.8 7.0 7.5 6.9 6.5 7.4 7.4 7.9 8.3 8.5
0.3 0.2 0.2 0.1 0.3 0.5 0.3 0.1 -0.3 -0.8 -0.8 -1.1 -1.4 -1.3 -2.0 -1.3 6.5 6.0 2.3 2.2 3.0 5.2 7.5 7.2 7.2 7.3 6.8 6.5 7.4 6.5 6.9 6.9 7.1 7.3 7.1 6.8 7.0 6.9 7.0 7.2 8.2 8.2 8.1 8.4 8.4
0.0 -0.1 -0.0 -0.1 0.1 0.2 -0.0 -0.3 -0.7 -1.1 -1.5 -0.9 -1.3 -1.1 -0.4 3.4 5.4 5.6 3.6 3.4 4.2 6.5 7.7 7.7 7.7 7.4 6.5 6.8 7.0 6.5 6.7 7.1 7.4 7.3 7.2 7.2 6.8 6.7 6.5 7.9 8.3 8.4 8.3 8.3 8.4
0.0 -0.2 -0.3 -0.3 -0.4 -0.2 -0.3 -0.6 -0.9 -1.3 -1.3 -1.0 -0.8 -1.1 2.3 6.7 5.0 3.3 4.2 3.9 5.1 6.7 7.3 7.8 7.9 7.6 7.2 6.9 6.6 7.0 6.9 7.0 7.2 7.1 7.2 6.7 6.8 6.1 6.4 8.0 8.0 8.1 8.0 8.2 8.4
-0.2 -0.3 -0.5 -0.6 -0.6 -0.7 -0.6 -0.6 -0.8 -0.9 -0.8 -1.0 -0.8 0.4 3.2 5.7 4.9 3.1 3.6 4.4 5.2 6.6 7.1 7.1 7.5 7.8 7.6 6.6 7.5 7.2 6.5 6.5 6.9 7.1 6.7 6.8 6.5 6.5 7.3 7.9 7.8 7.9 8.1 8.2 8.4
-0.5 -0.3 -0.8 -1.2 -1.3 -1.2 -1.2 -1.2 -1.1 -0.9 -0.8 -0.6 -0.7 1.2 5.5 4.8 4.4 4.7 5.1 5.6 6.2 6.5 7.4 7.2 7.7 7.9 7.5 7.5 7.1 6.5 6.5 6.5 6.5 6.7 7.0 6.7 6.5 6.6 7.4 7.3 7.2 7.8 8.0 8.1 8.3
-0.6 -0.5 -0.9 -1.2 -1.4 -1.7 -1.8 -1.7 -1.3 -0.7 -0.0 0.2 1.2 2.9 7.1 4.5 6.0 6.1 6.8 6.5 6.6 6.9 7.2 8.0 8.2 7.3 7.4 6.5 6.5 6.5 6.5 6.5 6.5 6.8 6.5 6.5 6.5 6.7 7.3 6.8 6.5 7.1 7.8 8.1 8.3
-0.5 -0.5 -1.1 -1.4 -1.5 -2.2 -2.4 -1.2 1.5 1.4 1.2 1.7 2.3 4.8 5.4 7.3 6.5 6.2 6.4 7.0 7.3 7.2 8.0 7.7 7.4 6.5 6.5 6.5 6.5 6.5 6.5 6.5 6.5 6.5 6.5 6.5 6.5 6.6 7.3 6.4 6.5 6.8 7.6 8.0 8.1
-0.7 -1.0 -1.2 -1.4 -1.7 -2.5 -2.0 1.5 4.3 4.9 4.1 7.0 6.9 6.1 6.8 7.2 6.8 6.4 7.4 8.1 7.3 7.5 6.5 7.1 6.5 6.5 6.5 6.5 6.5 6.5 6.5 6.5 6.5 6.5 6.5 6.5 6.5 6.5 7.1 7.0 6.6 6.0 7.4 7.9 8.0
-1.0 -1.3 -1.5 -1.9 -2.3 -3.1 -3.2 3.9 6.7 6.9 6.9 4.4 4.7 4.9 5.3 6.4 7.4 6.8 7.7 7.4 7.1 6.5 6.7 6.5 6.5 6.5 6.5 6.5 6.5 6.5 6.5 6.5 6.5 6.5 6.5 6.5 6.5 6.5 6.9 6.9 7.1 6.1 6.8 7.2 8.1
-1.1 -1.6 -1.8 -2.5 -3.5 -3.7 0.1 4.3 4.2 6.4 7.0 7.0 5.1 5.5 6.3 7.0 7.3 7.5 7.8 7.6 6.7 6.5 6.5 6.5 6.5 6.6 6.5 6.5 6.5 6.5 6.5 6.5 6.5 6.5 6.5 6.5 6.5 6.5 6.6 7.0 7.2 5.8 5.8 6.8 7.9
-1.3 -1.8 -2.0 -3.1 -1.6 0.4 3.0 3.7 2.9 4.6 6.5 6.5 6.8 7.0 6.3 6.8 6.8 7.3 7.9 7.6 6.7 6.5 6.5 6.5 6.7 6.5 6.5 6.5 6.5 6.5 6.5 6.5 6.5 6.5 6.5 6.5 6.5 6.5 6.5 6.5 6.7 6.7 5.4 6.1 7.7
-1.4 -1.9 -2.6 -3.6 0.7 2.6 5.0 2.5 1.8 4.7 6.5 6.5 6.7 7.2 6.7 7.1 7.3 7.0 7.4 7.5 6.5 6.5 6.5 6.5 6.5 6.5 6.5 6.5 6.5 6.5 6.5 6.5 6.5 6.5 6.5 6.5 6.5 6.5 6.5 6.5 6.5 7.0 6.9 5.5 6.3
-1.5 -2.6 -3.2 -3.4 -3.5 2.0 2.2 2.7 4.6 6.5 6.5 6.5 6.8 6.6 6.5 6.9 6.9 7.4 7.4 7.1 7.3 6.5 6.5 6.5 7.1 6.5 6.5 6.5 6.5 6.5 6.5 6.5 6.5 6.5 6.5 6.5 6.5 6.5 6.5 6.5 6.5 7.1 7.5 7.0 6.9
-2.5 -4.0 -4.0 -1.9 5.3 1.4 2.1 5.4 6.5 6.5 6.5 6.5 6.5 6.5 6.5 6.5 6.5 6.5 6.5 6.5 6.5 6.5 6.5 6.5 6.5 6.6 6.8 6.5 6.5 6.5 6.5 6.5 6.5 6.5 6.5 6.5 6.5 6.5 6.5 6.5 6.7 6.8 7.3 7.7 6.0
-3.9 -4.9 -4.2 -2.2 -1.2 0.3 4.4 6.6 6.5 6.5 6.5 6.5 6.5 6.5 6.5 6.5 6.5 6.5 6.5 6.5 6.5 6.5 6.5 6.5 6.5 6.5 6.5 6.5 6.5 6.5 6.5 6.5 6.5 6.5 6.5 6.5 6.5 6.5 6.5 7.1 7.3 7.5 7.6 7.3 7.4
-4.4 -2.1 -1.3 -0.1 -2.4 0.4 6.8 6.5 6.5 6.5 6.5 6.5 6.5 6.5 6.5 6.5 6.5 6.5 6.5 6.5 6.5 6.5 6.5 6.5 6.5 6.5 6.5 6.5 6.5 6.5 6.5 6.5 6.5 6.5 6.5 6.5 6.5 6.5 6.5 6.5 7.0 7.2 7.4 7.3 7.8
-1.6 1.5 3.4 -0.5 -0.5 4.6 6.6 6.5 6.5 6.6 6.6 6.5 6.5 6.5 6.5 6.5 6.5 6.5 6.5 6.5 6.5 6.6 6.8 6.5 6.5 6.5 6.5 6.7 6.6 6.5 6.5 6.5 6.5 6.5 6.5 6.5 6.5 6.5 6.5 6.5 6.5 6.7 7.3 7.5 7.8
1.0 6.2 3.9 1.1 2.1 6.6 6.5 6.5 6.5 7.1 6.9 6.5 6.5 6.5 6.5 6.5 6.5 6.5 6.5 6.5 6.5 6.5 6.7 6.5 6.5 6.5 6.5 6.5 6.5 6.5 6.5 6.5 6.5 6.5 6.5 6.5 6.5 6.5 6.5 6.5 6.5 6.9 7.5 7.6 7.8
2.6 6.5 4.2 3.0 6.8 6.9 6.5 6.5 5.2 6.6 7.1 6.5 6.6 6.5 6.5 6.5 6.5 6.5 6.5 6.5 7.0 6.8 6.5 6.5 6.5 6.5 6.5 6.5 6.5 6.5 6.5 6.5 6.5 6.5 6.5 6.5 6.5 6.5 6.5 6.8 7.0 7.0 7.3 7.8 8.1
4.5 5.7 4.9 4.7 6.5 6.5 6.6 6.5 6.8 6.5 6.5 6.5 6.5 6.5 6.5 6.5 6.5 6.5 6.5 6.8 7.0 6.6 6.5 6.5 6.5 6.5 6.5 6.5 6.5 6.5 6.5 6.5 6.5 6.5 6.5 6.5 6.5 6.5 6.8 6.9 7.0 7.0 7.4 7.7 7.8
4.6 6.5 6.7 5.3 4.9 6.6 6.5 6.5 6.5 6.8 6.7 6.9 6.5 6.7 6.5 6.5 6.5 6.5 6.5 6.6 7.0 6.9 6.3 6.6 6.5 6.5 6.5 6.5 6.5 6.5 6.5 6.5 6.5 6.5 6.5 6.5 6.5 6.5 6.5 6.5 6.8 7.2 7.5 7.3 7.6
4.4 6.6 5.6 6.5 6.6 6.5 6.5 6.5 6.5 6.5 6.8 7.0 6.5 6.5 6.5 6.5 6.5 6.5 6.5 6.5 6.7 6.6 6.8 6.5 6.5 6.5 6.5 6.5 6.5 6.5 6.5 6.5 6.5 6.5 6.5 6.5 6.5 6.5 6.5 6.5 6.9 7.1 7.2 7.0 6.2
6.7 6.9 5.5 7.0 6.9 6.6 6.5 6.5 6.5 6.5 6.5 6.5 6.5 6.5 6.5 6.5 6.5 6.5 6.5 6.5 6.5 6.6 6.5 6.5 6.5 6.5 6.5 6.5 6.5 6.5 6.5 6.5 6.5 6.5 6.5 6.5 6.5 6.4 7.2 7.4 7.0 7.1 7.1 7.2 7.3
3.0 3.3 5.9 6.0 6.6 6.5 6.5 6.5 6.5 6.6 6.9 7.0 6.7 6.5 6.5 6.6 7.1 7.2 7.3 7.2 6.8 6.5 6.5 6.5 6.5 6.5 6.5 6.5 6.5 6.5 6.5 6.5 6.5 6.5 6.5 6.5 6.5 6.7 6.5 6.8 7.0 7.1 7.3 7.4 7.4
Wind_Speed
10 10 10 9 10 9 9 9 8 8 8 8 10 9 10 10 12 1 6 6 5 15 12 12 5 6 4 3 3 3 4 2 1 3 3 6 5 3 8 14 6 2 13 17 18
11 10 10 11 10 10 10 9 10 9 8 8 8 9 10 9 3 9 10 9 11 16 13 15 11 10 3 3 2 1 3 6 9 3 3 6 9 9 8 7 8 15 17 19 18
13 12 11 10 10 10 9 10 9 10 10 9 8 7 9 7 3 4 4 13 12 19 10 9 12 5 2 2 2 2 2 8 13 7 6 9 10 4 13 3 9 23 23 20 19
14 12 11 10 10 10 9 9 9 8 9 9 7 6 8 4 2 4 1 16 15 8 12 12 9 6 4 5 5 2 3 10 6 11 8 9 7 8 7 3 14 19 22 20 18
14 13 11 10 10 9 9 8 8 8 7 8 7 3 2 3 5 3 11 16 13 7 12 9 14 5 6 4 5 4 2 8 7 11 10 7 10 7 4 7 17 18 17 17 15
14 13 12 10 9 9 8 7 7 7 6 5 5 3 1 4 1 3 14 13 13 6 7 12 9 4 5 3 6 3 4 7 2 13 10 13 7 6 5 8 16 17 17 16 14
15 14 12 11 9 9 8 7 7 7 5 4 3 3 3 4 6 12 13 5 9 5 7 4 4 3 3 5 1 9 10 10 11 12 6 16 7 9 8 9 16 17 14 14 13
15 15 13 10 8 7 7 7 6 5 3 2 3 2 4 2 4 10 12 7 4 5 4 1 2 1 1 1 3 4 5 7 6 9 9 6 15 14 7 11 14 16 14 14 13
14 14 12 11 9 9 10 10 5 4 5 5 2 2 1 1 2 8 9 10 7 0 2 2 2 1 3 6 5 2 4 4 8 4 10 4 6 16 13 12 15 14 15 13 12
14 14 12 11 10 9 13 2 8 9 5 3 3 3 2 4 5 4 4 16 4 4 5 4 2 4 3 6 8 7 5 3 5 9 13 8 4 15 17 14 14 12 13 14 14
15 13 11 10 8 5 3 3 2 3 4 4 1 2 2 4 8 3 6 10 6 4 5 4 6 12 10 4 5 7 6 5 4 9 9 5 9 16 18 19 13 12 12 14 15
16 14 12 10 6 3 1 3 1 3 5 6 7 6 5 2 5 9 10 5 13 13 5 6 11 6 4 6 6 4 5 4 6 5 2 8 12 14 17 19 17 12 11 10 11
17 15 13 10 6 2 3 5 2 2 3 2 4 3 3 8 6 11 11 7 15 12 11 12 4 7 8 6 7 4 4 6 3 6 3 12 8 12 13 10 12 9 6 7 9
17 14 13 9 2 2 4 0 4 2 1 2 2 3 6 4 5 6 11 4 4 13 8 8 5 10 7 6 5 8 7 7 10 7 3 2 4 8 14 15 17 13 10 10 6
17 15 11 5 3 3 1 2 4 3 2 3 3 5 5 3 14 6 5 2 8 9 6 5 10 9 7 6 6 1 3 10 7 3 3 6 3 5 13 15 20 21 17 10 11
16 15 9 2 2 5 3 2 2 2 3 2 2 4 7 4 3 5 7 3 2 6 3 5 1 3 3 3 10 9 10 9 6 2 4 6 7 6 11 20 20 22 21 16 11
19 15 4 2 1 2 1 2 2 1 2 3 3 2 7 3 5 8 8 5 3 7 10 7 7 3 3 6 7 4 11 4 3 4 3 2 6 4 11 8 18 23 25 20 10
26 16 8 4 4 5 2 1 1 1 2 1 2 5 4 3 4 3 7 6 3 3 4 8 7 8 7 10 7 15 12 7 13 6 6 5 6 2 4 6 9 19 22 18 16
23 1 2 2 10 3 1 0 0 1 2 1 3 4 2 2 2 2 2 7 5 7 2 5 4 3 6 4 10 7 9 4 3 1 5 3 3 5 3 5 9 17 19 19 17
3 2 3 3 10 2 1 1 2 2 2 0 3 2 2 2 2 2 2 3 4 1 2 6 3 2 3 4 2 7 6 7 3 8 8 4 4 4 6 7 11 16 20 21 18
0 2 6 2 2 2 1 1 2 2 1 3 3 4 4 2 2 2 1 2 2 3 3 3 2 4 3 2 3 4 5 2 3 3 9 4 4 2 7 9 11 14 16 19 19
1 3 4 3 1 1 2 1 4 2 4 5 4 4 3 3 3 2 3 1 2 1 2 2 1 1 3 3 2 1 1 4 7 7 1 4 4 3 5 9 9 10 10 13 14
2 2 2 2 1 1 2 2 6 6 6 5 5 5 3 2 3 2 1 2 0 1 2 4 1 2 4 4 2 3 3 1 1 1 8 9 3 1 9 11 8 9 10 10 10
1 3 2 2 1 2 1 2 3 4 4 5 4 1 2 4 5 2 3 3 2 3 5 2 2 3 6 2 1 0 4 2 5 6 6 7 6 9 13 14 12 12 10 8 6
3 2 2 2 2 2 1 1 3 3 4 7 4 5 2 2 2 3 3 2 3 1 2 1 1 1 5 5 4 5 6 3 6 2 8 7 11 15 18 17 14 11 10 9 6
1 1 1 2 1 3 3 2 4 3 3 5 6 8 7 4 3 2 3 3 1 2 2 1 3 1 4 2 3 2 6 4 5 3 6 3 7 5 15 15 13 12 11 10 8
1 1 1 2 2 1 1 1 4 2 4 5 1 1 6 5 3 3 1 2 2 1 2 0 4 3 3 4 4 6 6 9 6 4 5 3 3 9 15 17 14 12 12 11 9
Wind_Direction
335 331 326 321 318 319 318 318 316 317 320 323 323 322 319 328 319 189 240 227 177 165 152 139 130 135 165 167 178 193 89 77 298 145 99 140 125 76 114 122 84 103 142 135 145
332 326 321 320 318 317 316 315 314 315 316 318 321 319 315 330 302 253 241 200 202 168 151 158 151 150 150 182 190 52 94 133 195 175 152 143 114 120 133 118 89 110 113 135 149
336 331 324 316 312 310 309 311 314 313 312 312 314 313 310 314 281 248 197 191 177 171 162 155 143 137 133 185 143 120 135 164 199 210 186 140 137 93 133 147 175 148 141 151 156
339 333 327 315 305 301 302 303 306 310 309 308 306 307 308 267 156 5 86 165 153 169 147 144 155 146 150 180 179 171 202 171 167 184 164 149 109 111 53 328 144 145 147 154 164
339 336 327 318 309 299 294 293 294 299 302 302 299 295 324 200 253 4 135 145 139 148 155 158 162 154 165 186 170 224 163 185 174 174 153 128 112 111 86 113 138 143 149 158 167
340 339 335 325 312 302 298 296 294 292 291 290 288 261 102 219 86 4 155 152 150 138 153 161 176 187 133 156 202 181 160 134 180 169 141 120 86 58 244 143 146 155 162 169 174
343 340 339 334 325 318 311 302 295 289 288 274 230 252 147 265 341 111 130 155 158 149 166 213 184 216 129 153 86 136 133 105 122 140 106 95 126 203 164 166 163 168 172 174 179
343 345 341 338 328 315 302 295 285 272 251 207 187 241 245 254 1 135 128 109 125 96 173 257 225 130 256 59 106 144 150 156 164 150 141 182 195 210 184 171 174 177 181 184 184
343 344 343 341 334 322 311 304 270 200 181 161 176 263 215 162 182 175 131 132 174 0 77 197 265 225 168 168 146 99 159 140 148 167 155 205 131 184 192 184 182 179 186 190 185
339 344 346 345 343 339 327 243 112 124 139 190 250 254 227 144 144 164 140 135 128 151 129 136 182 194 161 195 188 161 145 152 129 163 170 185 115 161 181 175 186 173 192 196 195
334 339 345 343 336 337 353 138 193 186 221 235 117 300 311 78 130 174 162 118 116 168 166 155 200 200 181 181 124 122 118 131 122 158 159 164 143 159 164 176 194 187 195 206 209
333 333 338 333 325 314 179 227 216 14 299 229 237 268 267 276 117 145 183 137 149 170 155 159 213 198 164 150 146 134 128 98 106 139 144 159 157 162 171 185 181 182 198 203 204
333 331 336 337 321 172 222 233 101 41 271 282 195 204 170 174 143 168 187 138 159 155 184 183 182 157 185 170 175 181 175 159 113 150 160 157 141 168 188 179 159 146 186 160 226
330 332 340 337 243 157 247 188 129 183 308 66 197 148 141 187 116 149 193 161 156 160 151 182 132 163 176 197 202 208 203 155 145 178 158 231 160 205 183 192 182 174 178 187 191
329 337 330 295 309 225 62 19 128 189 100 350 118 130 146 188 137 171 190 194 160 147 182 146 168 176 194 213 194 229 181 181 162 124 194 182 223 137 191 205 205 189 188 179 193
328 332 329 168 232 254 357 107 210 258 80 80 103 156 150 118 126 124 181 90 101 117 97 132 94 211 197 183 197 141 120 93 91 128 239 182 223 175 185 215 206 205 197 186 184
326 318 262 239 224 15 322 189 288 29 317 31 45 108 126 73 107 149 163 154 157 173 191 193 235 243 200 197 156 204 181 156 164 190 231 171 191 278 189 214 211 201 200 192 177
329 312 203 221 283 315 234 259 333 34 30 43 62 80 108 26 43 83 146 167 98 96 156 190 201 203 175 217 190 204 228 226 207 195 198 137 219 188 239 251 237 202 193 182 178
324 182 194 269 224 275 79 38 266 187 331 54 106 88 91 94 107 117 107 170 188 200 212 176 211 162 222 182 190 181 220 280 127 77 214 167 225 217 196 210 194 192 182 185 177
325 319 23 356 158 201 85 270 294 248 341 259 90 31 120 67 127 111 148 165 152 105 283 182 200 165 141 159 140 220 158 198 239 179 216 191 259 236 202 191 185 189 189 188 185
294 106 6 102 221 69 56 289 318 333 350 34 95 94 72 88 68 92 140 141 180 100 110 157 253 135 208 64 177 167 199 194 221 272 225 197 227 144 189 186 188 190 192 188 188
30 87 19 297 71 11 21 320 336 49 13 50 90 86 69 46 79 100 143 258 87 168 192 135 187 203 73 17 271 285 85 219 225 186 242 282 212 160 189 174 175 181 182 196 195
64 93 45 298 70 51 333 31 44 32 31 24 41 45 92 86 101 52 41 355 98 129 160 171 297 217 166 160 150 58 16 45 177 163 203 224 210 112 178 164 161 170 177 184 170
149 108 66 60 24 111 110 37 94 47 61 49 35 47 65 46 55 94 48 46 5 79 96 120 105 278 273 97 95 31 6 328 244 216 193 227 173 187 185 179 171 174 167 146 150
10 71 7 136 90 148 132 67 90 38 43 30 62 32 48 64 59 48 44 15 71 37 44 4 102 131 99 104 112 80 29 28 228 272 230 192 203 194 187 179 172 152 150 137 144
33 151 105 80 251 156 354 57 109 132 13 38 86 60 71 82 47 36 352 32 2 17 55 5 131 133 159 318 270 31 41 47 38 307 248 277 220 295 164 159 155 150 148 153 154
62 123 276 7 52 108 57 90 100 130 65 54 86 93 55 28 321 321 286 76 17 271 137 132 154 157 205 352 295 216 37 45 337 308 305 226 34 151 170 167 156 154 156 147 144